Quillayute, WA
on Sunday, November 11, 2012

Sunday
Previous Day Next Day
Daily Summary
 ActualAverageRecord
Temperature
Mean Temperature °F 45°F  
Max Temperature 49°F 51°F 66°F (2013)
Min Temperature 34°F 39°F 23°F (2000)
Degree Days
Heating Degree Days 23 20  
Month to date heating degree days 210  
Since 1 July heating degree days 1300  
Cooling Degree Days 0 0  
Month to date cooling degree days 0  
Year to date cooling degree days 19  
Moisture
Dew Point 41°F   
Average Humidity 88    
Maximum Humidity 100    
Minimum Humidity 64    
Precipitation
Precipitation 0.96 in 0.53 in 2.36 in (2008)
Month to date precipitation 5.46  
Year to date precipitation 76.49  
Wind
Wind Speed 9 mph   
Max Wind Speed 22 mph   
Max Gust Speed 37 mph   
Visibility 3 miles   
Events Rain   

Key: T is trace of precipitation, MM is missing value
Source: NWS Daily Summary
Time(PST)TemperatureDew PointHumidity Pressure Visibility Wind DirectionWind SpeedGust SpeedPrecipitationEvents Conditions
12:53 AM 35.1°F 30.0°F 82% 30.17 in 7.0 miles ENE 5.8 mph - N/A   Partly Cloudy
1:53 AM 36.0°F 30.0°F 79% 30.16 in 7.0 miles East 6.9 mph - N/A   Mostly Cloudy
2:53 AM 36.0°F 30.0°F 79% 30.15 in 8.0 miles ENE 5.8 mph - N/A   Clear
3:53 AM 37.9°F 30.0°F 73% 30.13 in 8.0 miles East 6.9 mph - N/A   Overcast
4:53 AM 37.9°F 30.0°F 73% 30.12 in 8.0 miles ENE 8.1 mph - N/A   Overcast
5:53 AM 39.9°F 30.9°F 70% 30.13 in 7.0 miles East 6.9 mph - 0.00 in Rain Light Rain
6:43 AM 39.2°F 33.8°F 81% 30.12 in 3.0 miles ENE 4.6 mph - 0.02 in Rain Light Rain
6:53 AM 39.0°F 34.0°F 82% 30.13 in 4.0 miles ENE 5.8 mph - 0.02 in Rain Light Rain
7:19 AM 37.4°F 35.6°F 93% 30.12 in 4.0 miles ENE 6.9 mph - 0.03 in Rain Light Rain
7:53 AM 39.0°F 35.1°F 86% 30.12 in 3.0 miles East 6.9 mph - 0.04 in Rain Light Rain
8:12 AM 39.2°F 35.6°F 87% 30.11 in 2.5 miles East 9.2 mph - 0.01 in Rain Light Rain
8:22 AM 39.2°F 35.6°F 87% 30.10 in 3.0 miles East 11.5 mph - 0.02 in Rain Light Rain
8:37 AM 39.2°F 35.6°F 87% 30.10 in 2.5 miles East 8.1 mph - 0.03 in Rain Light Rain
8:53 AM 39.0°F 36.0°F 89% 30.11 in 2.0 miles ENE 8.1 mph - 0.04 in Rain Light Rain
9:25 AM 41.0°F 37.4°F 87% 30.10 in 1.8 miles East 5.8 mph - 0.04 in Rain Light Rain
9:53 AM 42.8°F 39.2°F 87% 30.09 in 1.8 miles East 9.2 mph - N/A Rain Light Rain
10:09 AM 42.8°F 39.2°F 87% 30.09 in 1.2 miles East 9.2 mph - 0.03 in Rain Rain
10:38 AM 42.8°F 39.2°F 87% 30.09 in 2.0 miles East 9.2 mph - 0.07 in Rain Light Rain
10:50 AM 42.8°F 39.2°F 87% 30.09 in 4.0 miles East 9.2 mph - 0.07 in Rain Light Rain
10:53 AM 43.0°F 39.9°F 89% 30.09 in 4.0 miles East 6.9 mph - 0.07 in Rain Light Rain
11:53 AM 46.0°F 42.1°F 86% 30.06 in 6.0 miles SE 8.1 mph - 0.00 in   Overcast
12:53 PM 46.9°F 42.1°F 83% 30.04 in 3.0 miles ESE 10.4 mph - 0.01 in Rain Light Rain
1:09 PM 46.4°F 42.8°F 87% 30.02 in 2.0 miles SE 11.5 mph 24.2 mph 0.01 in Rain Light Rain
1:25 PM 46.4°F 42.8°F 87% 30.02 in 3.0 miles SE 11.5 mph 17.3 mph 0.02 in Rain Light Rain
1:53 PM 46.9°F 43.0°F 86% 30.01 in 3.0 miles Variable 6.9 mph 18.4 mph 0.04 in Rain Light Rain
2:01 PM 46.4°F 42.8°F 87% 30.00 in 1.8 miles Variable 3.5 mph 17.3 mph 0.01 in Rain Light Rain
2:53 PM 46.9°F 43.0°F 86% 29.99 in 1.8 miles SE 9.2 mph 20.7 mph 0.13 in Rain Rain
3:07 PM 46.4°F 42.8°F 87% 29.98 in 1.2 miles SE 11.5 mph 18.4 mph 0.04 in Rain Rain
3:18 PM 46.4°F 42.8°F 87% 29.97 in 1.5 miles SE 13.8 mph 20.7 mph 0.07 in Rain Light Rain
3:36 PM 46.4°F 44.6°F 93% 29.96 in 2.5 miles SE 11.5 mph 18.4 mph 0.10 in Rain Light Rain
3:49 PM 46.4°F 44.6°F 93% 29.95 in 1.8 miles ESE 9.2 mph 21.9 mph 0.12 in Rain Light Rain
3:53 PM 46.9°F 45.0°F 93% 29.96 in 1.8 miles SE 9.2 mph 21.9 mph 0.13 in Rain Light Rain
4:01 PM 46.4°F 46.4°F 100% 29.95 in 2.5 miles SE 9.2 mph - 0.01 in Rain Light Rain
4:35 PM 48.2°F 46.4°F 93% 29.93 in 3.0 miles SE 11.5 mph 23.0 mph 0.06 in Rain Light Rain
4:50 PM 48.2°F 44.6°F 87% 29.93 in 2.5 miles SSE 15.0 mph 24.2 mph 0.10 in Rain Rain
4:51 PM 48.0°F 45.0°F 89% 29.94 in 2.5 miles SSE 12.7 mph 24.2 mph 0.10 in Rain Rain
5:06 PM 46.4°F 44.6°F 93% 29.93 in 1.2 miles SE 10.4 mph 25.3 mph N/A Rain Heavy Rain
5:17 PM 48.2°F 46.4°F 93% 29.92 in 1.8 miles ESE 6.9 mph - 0.15 in Rain Rain
5:22 PM 48.2°F 46.4°F 93% 29.92 in 2.0 miles Variable 6.9 mph 19.6 mph 0.18 in Rain Rain
5:32 PM 48.2°F 46.4°F 93% 29.91 in 5.0 miles SE 12.7 mph 16.1 mph 0.18 in Rain Light Rain
5:53 PM 48.0°F 46.0°F 93% 29.91 in 5.0 miles SSE 11.5 mph 21.9 mph 0.18 in   Overcast
6:53 PM 48.9°F 46.0°F 90% 29.93 in 5.0 miles SSE 11.5 mph 29.9 mph N/A   Overcast
7:53 PM 48.0°F 46.0°F 93% 29.94 in 2.5 miles SSE 15.0 mph 26.5 mph 0.01 in Rain Light Rain
8:18 PM 48.2°F 46.4°F 93% 29.94 in 3.0 miles SSE 9.2 mph 24.2 mph 0.00 in   Overcast
8:28 PM 48.2°F 46.4°F 93% 29.94 in 1.8 miles SSE 11.5 mph 20.7 mph 0.01 in Rain Light Rain
8:46 PM 48.2°F 46.4°F 93% 29.94 in 2.5 miles SSE 9.2 mph 19.6 mph 0.02 in Rain Light Rain
8:53 PM 48.0°F 46.0°F 93% 29.95 in 2.0 miles SSE 10.4 mph 23.0 mph 0.03 in Rain Rain
8:55 PM 48.2°F 46.4°F 93% 29.94 in 1.8 miles SSE 11.5 mph 23.0 mph 0.01 in Rain Rain
9:05 PM 48.2°F 46.4°F 93% 29.94 in 2.5 miles SSE 11.5 mph 18.4 mph 0.02 in Rain Light Rain
9:43 PM 48.2°F 46.4°F 93% 29.95 in 4.0 miles Variable 5.8 mph 20.7 mph 0.03 in   Overcast
9:53 PM 48.0°F 46.9°F 96% 29.95 in 2.5 miles SE 6.9 mph - 0.03 in Rain Light Rain
10:07 PM 48.2°F 46.4°F 93% 29.95 in 3.0 miles SSE 9.2 mph - 0.02 in Rain Light Rain
10:15 PM 48.2°F 46.4°F 93% 29.94 in 2.0 miles SSE 10.4 mph 26.5 mph 0.03 in Rain Light Rain
10:27 PM 48.2°F - N/A% 29.94 in 3.0 miles SSE 10.4 mph 19.6 mph N/A Rain Light Rain
10:39 PM 48.2°F - N/A% 29.94 in 3.0 miles SSE 11.5 mph 18.4 mph 0.04 in Rain Light Rain
10:53 PM 48.9°F - N/A% 29.95 in 2.5 miles SE 6.9 mph 19.6 mph 0.04 in Rain Light Rain
11:06 PM 48.2°F - N/A% 29.95 in 3.0 miles Variable 6.9 mph 16.1 mph 0.01 in Rain Light Rain
11:53 PM 48.9°F - N/A% 29.97 in 9.0 miles SSE 8.1 mph - 0.01 in   Overcast
Moon Phase
Nov. 11 Nov. 13 Nov. 20 Nov. 28 Dec. 06
Sunrise:07:19 AM (PST) Moon Rise:04:31 AM (PST)11/11
Sunset:04:44 PM (PST) Moon Set:03:18 PM (PST)11/11

Copyright © 2014 The Weather Underground, Inc.